This demonstration page uses our WeatherBlox Daily Observations layout. Learn more.

Left ArrowRight Arrow

Hourly Observations for September 2, 2018

Temp ( °F °C ) Dew Point ( °F °C ) Humidity (%) Winds ( mph kmh ) Pressure ( in mb ) Visibility ( mi km ) Precip ( " mm )
12:53 am 00:53 Clear 72 22.2 71 21.7 97 97 E 3 6 30.12 1020 10 16 0.00 0.00
1:53 am 01:53 Clear 73 22.8 71 21.7 94 94 Calm 30.14 1021 10 16 0.00 0.00
2:53 am 02:53 Clear with Mist and Fog 70 21.1 69 20.6 97 97 Calm 30.15 1021 5 8 0.00 0.00
3:23 am 03:23 Clear with Mist and Fog 70 21.1 69 20.6 97 97 Calm 30.12 1020 2 3 0.00 0.00
3:27 am 03:27 Clear with Mist and Fog 70 21.1 69 20.6 97 97 Calm 30.12 1020 1 1 0.00 0.00
3:37 am 03:37 Clear with Mist and Fog 69 20.6 69 20.6 100 100 Calm 30.15 1021 2 3 0.00 0.00
3:39 am 03:39 Clear with Mist and Fog 70 21.1 69 20.6 97 97 Calm 30.15 1021 3 5 0.00 0.00
3:53 am 03:53 Clear with Mist and Fog 70 21.1 69 20.6 97 97 Calm 30.16 1021 6 10 0.00 0.00
4:50 am 04:50 Clear with Mist and Fog 68 20 66 19 94 94 Calm 30.15 1021 1 2 0.00 0.00
4:53 am 04:53 Mostly Cloudy with Mist and Fog 68 20 67 19.4 96 96 Calm 30.16 1022 1 1 0.00 0.00
5:25 am 05:25 Mostly Clear with Mist and Fog 68 20 67 19.4 96 96 Calm 30.15 1021 1 2 0.00 0.00
5:29 am 05:29 Clear with Mist and Fog 68 20 67 19.4 96 96 Calm 30.15 1021 2 3 0.00 0.00
5:37 am 05:37 Clear with Mist and Fog 68 20 67 19.4 96 96 Calm 30.15 1021 3 5 0.00 0.00
5:44 am 05:44 Clear with Mist and Fog 68 20 67 19.4 96 96 Calm 30.18 1022 3 4 0.00 0.00
5:53 am 05:53 Clear with Mist and Fog 68 20 67 19.4 96 96 Calm 30.19 1022 1 1 0.00 0.00
6:06 am 06:06 Mostly Clear with Mist and Fog 68 20 67 19.4 96 96 Calm 30.18 1022 2 3 0.00 0.00
6:14 am 06:14 Mostly Clear with Mist and Fog 68 20 67 19.4 96 96 Calm 30.18 1022 3 5 0.00 0.00
6:17 am 06:17 Mostly Clear with Mist and Fog 68 20 67 19.4 96 96 Calm 30.18 1022 1 2 0.00 0.00
6:24 am 06:24 Partly Cloudy with Fog 67 19.4 66 18.9 97 97 Calm 30.18 1022 0 0 0.00 0.00
6:37 am 06:37 Mostly Cloudy with Fog 68 20 67 19.4 96 96 Calm 30.18 1022 0 0 0.00 0.00
6:53 am 06:53 Mostly Clear with Mist and Fog 68 20 67 19.4 96 96 E 3 6 30.19 1022 1 2 0.00 0.00
6:57 am 06:57 Mostly Clear with Mist and Fog 68 20 67 19.4 96 96 E 3 6 30.18 1022 3 5 0.00 0.00
7:06 am 07:06 Clear with Mist and Fog 70 21.1 69 20.6 97 97 ESE 3 6 30.18 1022 2 3 0.00 0.00
7:14 am 07:14 Sunny with Mist and Fog 69 20.6 68 20 96 96 Calm 30.18 1022 1 2 0.00 0.00
7:21 am 07:21 Sunny with Fog 68 20 68 20 100 100 Calm 30.18 1022 1 1 0.00 0.00
7:34 am 07:34 Sunny with Mist and Fog 69 20.6 68 20 96 96 Calm 30.18 1022 1 2 0.00 0.00
7:42 am 07:42 Sunny with Fog 69 20.6 69 20.6 100 100 Calm 30.18 1022 0 0 0.00 0.00
7:50 am 07:50 Sunny with Mist and Fog 70 21 70 21 100 100 Calm 30.18 1022 2 3 0.00 0.00
7:53 am 07:53 Sunny with Mist and Fog 70 21.1 70 21.1 100 100 Calm 30.20 1023 4 6 0.00 0.00
8:53 am 08:53 Sunny 76 24.4 74 23.3 94 94 Calm 30.22 1023 10 16 0.00 0.00
9:53 am 09:53 Sunny 80 26.7 72 22.2 76 76 S 3 6 30.22 1023 10 16 0.00 0.00
10:53 am 10:53 Partly Cloudy 83 28.3 72 22.2 70 70 WSW 5 7 30.22 1023 10 16 0.00 0.00
11:53 am 11:53 Sunny 86 30 72 22.2 63 63 VRB 5 7 30.20 1023 10 16 0.00 0.00
12:53 pm 12:53 Sunny 88 31.1 72 22.2 59 59 W 5 7 30.19 1022 10 16 0.00 0.00
1:53 pm 13:53 Mostly Sunny 89 31.7 72 22.2 57 57 VRB 6 9 30.18 1022 10 16 0.00 0.00
2:53 pm 14:53 Sunny 89 31.7 70 21.1 53 53 SSW 7 11 30.16 1021 10 16 0.00 0.00
3:53 pm 15:53 Partly Cloudy 90 32.2 71 21.7 54 54 undefined N/A 30.15 1021 10 16 0.00 0.00
4:53 pm 16:53 Mostly Sunny 88 31.1 71 21.7 57 57 VRB 5 7 30.14 1021 10 16 0.00 0.00
5:53 pm 17:53 Mostly Sunny 89 31.7 73 22.8 59 59 WSW 7 11 30.13 1020 10 16 0.00 0.00
6:53 pm 18:53 Mostly Sunny 87 30.6 72 22.2 61 61 VRB 5 7 30.12 1020 10 16 0.00 0.00
7:53 pm 19:53 Sunny 81 27.2 73 22.8 77 77 S 3 6 30.12 1020 10 16 0.00 0.00
8:53 pm 20:53 Clear 76 24.4 73 22.8 91 91 Calm 30.14 1021 10 16 0.00 0.00
9:53 pm 21:53 Clear 76 24.4 72 22.2 88 88 Calm 30.16 1021 10 16 0.00 0.00
10:53 pm 22:53 Clear 76 24.4 73 22.8 91 91 Calm 30.18 1022 10 16 0.00 0.00
11:53 pm 23:53 Clear 75 23.9 72 22.2 90 90 Calm 30.19 1023 10 16 0.00 0.00

Powered by AerisWeather